When you browse on this site, cookies collect data to enhance your experience and personalize the content and advertising you see.
Visit our Privacy Policy to learn more. By continuing to use the site, you agree to this use of cookies and data.
  • In Switzerland
  • List of Countries
  • For 7 days
  • Water Temperature
  • Satellite Maps
  • Weather Map
  • Weather Widgets
  • user-avatar
    Login

    Hourly Weather Talas

    Today, 22 January, Tuesday

    Time Temperature Precipitation Wind Pressure Humidity
    00:00 -9°C° 0 mm 1 mps 596 mmHg 67%
    01:00 -9°C° 0 mm 1 mps 596 mmHg 66%
    02:00 -9°C° 0 mm 1 mps 595 mmHg 65%
    03:00 -9°C° 0 mm 1 mps 595 mmHg 64%
    04:00 -10°C° 0 mm 1 mps 594 mmHg 63%
    05:00 -10°C° 0 mm 1 mps 593 mmHg 62%
    06:00 -10°C° 0 mm 1 mps 593 mmHg 60%
    07:00 -10°C° 0 mm 1 mps 593 mmHg 59%
    08:00 -10°C° 0 mm 1 mps 593 mmHg 57%
    09:00 -8°C° 0 mm 1 mps 593 mmHg 56%
    10:00 -6°C° 0 mm 1 mps 594 mmHg 54%
    11:00 -5°C° 0 mm 0 mps 594 mmHg 52%
    12:00 -4°C° 0 mm 1 mps 594 mmHg 55%
    13:00 -3°C° 0 mm 1 mps 594 mmHg 57%
    14:00 -3°C° 0 mm 1 mps 594 mmHg 60%
    15:00 -6°C° 0 mm 1 mps 593 mmHg 66%
    16:00 -7°C° 0 mm 1 mps 593 mmHg 71%
    17:00 -8°C° 0 mm 0 mps 592 mmHg 77%
    18:00 -8°C° 0 mm 1 mps 592 mmHg 73%
    19:00 -8°C° 0 mm 1 mps 592 mmHg 69%
    20:00 -8°C° 0 mm 1 mps 593 mmHg 64%
    21:00 -9°C° 0 mm 1 mps 593 mmHg 59%
    22:00 -10°C° 0 mm 2 mps 593 mmHg 53%
    23:00 -10°C° 0 mm 2 mps 593 mmHg 48%

    Tomorrow, 23 January, Wednesday

    Time Temperature Precipitation Wind Pressure Humidity
    00:00 -10°C° 0 mm 2 mps 592 mmHg 45%
    01:00 -10°C° 0 mm 2 mps 592 mmHg 43%
    02:00 -10°C° 0 mm 2 mps 592 mmHg 40%
    03:00 -10°C° 0 mm 2 mps 593 mmHg 39%
    04:00 -10°C° 0 mm 2 mps 593 mmHg 38%
    05:00 -10°C° 0 mm 2 mps 593 mmHg 37%
    06:00 -10°C° 0 mm 2 mps 593 mmHg 37%
    07:00 -10°C° 0 mm 2 mps 593 mmHg 37%
    08:00 -10°C° 0 mm 2 mps 593 mmHg 38%
    09:00 -8°C° 0 mm 2 mps 594 mmHg 39%
    10:00 -6°C° 0 mm 1 mps 595 mmHg 40%
    11:00 -3°C° 0 mm 1 mps 596 mmHg 41%
    12:00 -3°C° 0 mm 1 mps 596 mmHg 42%
    13:00 -3°C° 0 mm 1 mps 596 mmHg 43%
    14:00 -3°C° 0 mm 1 mps 596 mmHg 44%
    15:00 -4°C° 0 mm 1 mps 595 mmHg 50%
    16:00 -6°C° 0 mm 1 mps 595 mmHg 56%
    17:00 -8°C° 0 mm 1 mps 594 mmHg 62%
    18:00 -8°C° 0 mm 1 mps 595 mmHg 61%
    19:00 -8°C° 0 mm 1 mps 595 mmHg 61%
    20:00 -9°C° 0 mm 2 mps 596 mmHg 60%
    21:00 -9°C° 0 mm 2 mps 596 mmHg 60%
    22:00 -9°C° 0 mm 2 mps 596 mmHg 60%
    23:00 -9°C° 0 mm 2 mps 596 mmHg 59%

    Day after tomorrow, 24 January, Thursday

    Time Temperature Precipitation Wind Pressure Humidity
    00:00 -9°C° 0 mm 2 mps 596 mmHg 59%
    01:00 -9°C° 0 mm 2 mps 596 mmHg 59%
    02:00 -9°C° 0 mm 2 mps 596 mmHg 59%
    03:00 -9°C° 0 mm 2 mps 597 mmHg 59%
    04:00 -9°C° 0 mm 2 mps 597 mmHg 59%
    05:00 -9°C° 0 mm 2 mps 597 mmHg 59%
    06:00 -9°C° 0 mm 2 mps 597 mmHg 60%
    07:00 -9°C° 0 mm 2 mps 598 mmHg 60%
    08:00 -9°C° 0 mm 2 mps 598 mmHg 61%
    09:00 -8°C° 0 mm 2 mps 599 mmHg 60%
    10:00 -7°C° 0 mm 2 mps 599 mmHg 59%
    11:00 -6°C° 0 mm 2 mps 600 mmHg 58%
    12:00 -6°C° 0 mm 2 mps 600 mmHg 58%
    13:00 -4°C° 0 mm 1 mps 600 mmHg 59%
    14:00 -3°C° 0 mm 1 mps 600 mmHg 59%
    15:00 -4°C° 0 mm 1 mps 599 mmHg 62%
    16:00 -7°C° 0 mm 1 mps 599 mmHg 65%
    17:00 -8°C° 0 mm 1 mps 599 mmHg 69%
    18:00 -9°C° 0 mm 2 mps 599 mmHg 68%
    19:00 -10°C° 0 mm 2 mps 599 mmHg 68%
    20:00 -13°C° 0 mm 3 mps 599 mmHg 68%
    21:00 -13°C° 0 mm 3 mps 599 mmHg 67%
    22:00 -13°C° 0 mm 3 mps 599 mmHg 66%
    23:00 -13°C° 0 mm 3 mps 599 mmHg 65%

    25 January, Friday

    Time Temperature Precipitation Wind Pressure Humidity
    00:00 -13°C° 0 mm 3 mps 599 mmHg 63%
    01:00 -13°C° 0 mm 3 mps 599 mmHg 62%
    02:00 -13°C° 0 mm 3 mps 599 mmHg 61%
    03:00 -13°C° 0 mm 3 mps 599 mmHg 59%
    04:00 -13°C° 0 mm 3 mps 599 mmHg 57%
    05:00 -13°C° 0 mm 3 mps 599 mmHg 55%
    06:00 -13°C° 0 mm 3 mps 599 mmHg 54%
    07:00 -13°C° 0 mm 3 mps 599 mmHg 52%
    08:00 -12°C° 0 mm 3 mps 599 mmHg 50%
    09:00 -10°C° 0 mm 3 mps 599 mmHg 49%
    10:00 -7°C° 0 mm 2 mps 600 mmHg 48%
    11:00 -5°C° 0 mm 2 mps 600 mmHg 46%
    12:00 -4°C° 0 mm 2 mps 600 mmHg 44%
    13:00 -2°C° 0 mm 1 mps 600 mmHg 43%
    14:00 -1°C° 0 mm 1 mps 599 mmHg 41%
    15:00 -3°C° 0 mm 1 mps 599 mmHg 44%
    16:00 -6°C° 0 mm 1 mps 598 mmHg 46%
    17:00 -7°C° 0 mm 1 mps 597 mmHg 48%
    18:00 -9°C° 0 mm 2 mps 597 mmHg 45%
    19:00 -9°C° 0 mm 2 mps 597 mmHg 42%
    20:00 -10°C° 0 mm 3 mps 597 mmHg 39%
    21:00 -10°C° 0 mm 3 mps 597 mmHg 37%
    22:00 -10°C° 0 mm 3 mps 597 mmHg 36%
    23:00 -10°C° 0 mm 3 mps 597 mmHg 34%

    26 January, Saturday

    Time Temperature Precipitation Wind Pressure Humidity
    00:00 -10°C° 0 mm 3 mps 596 mmHg 33%
    01:00 -10°C° 0 mm 3 mps 596 mmHg 32%
    02:00 -10°C° 0 mm 3 mps 596 mmHg 31%
    03:00 -10°C° 0 mm 3 mps 596 mmHg 30%
    04:00 -10°C° 0 mm 3 mps 596 mmHg 30%
    05:00 -10°C° 0 mm 3 mps 596 mmHg 30%
    06:00 -10°C° 0 mm 3 mps 596 mmHg 29%
    07:00 -10°C° 0 mm 3 mps 596 mmHg 29%
    08:00 -10°C° 0 mm 3 mps 596 mmHg 29%
    09:00 -8°C° 0 mm 3 mps 597 mmHg 33%
    10:00 -6°C° 0 mm 3 mps 598 mmHg 38%
    11:00 -4°C° 0 mm 3 mps 599 mmHg 42%
    12:00 -3°C° 0 mm 2 mps 599 mmHg 41%
    13:00 -3°C° 0 mm 2 mps 598 mmHg 40%
    14:00 -2°C° 0 mm 2 mps 598 mmHg 39%
    15:00 -4°C° 0 mm 2 mps 598 mmHg 41%
    16:00 -5°C° 0 mm 2 mps 597 mmHg 42%
    17:00 -7°C° 0 mm 2 mps 596 mmHg 44%
    18:00 -9°C° 0 mm 3 mps 596 mmHg 41%
    19:00 -9°C° 0 mm 3 mps 596 mmHg 38%
    20:00 -11°C° 0 mm 4 mps 596 mmHg 35%
    21:00 -11°C° 0 mm 4 mps 596 mmHg 34%
    22:00 -11°C° 0 mm 4 mps 596 mmHg 33%
    23:00 -11°C° 0 mm 4 mps 596 mmHg 32%

    27 January, Sunday

    Time Temperature Precipitation Wind Pressure Humidity
    00:00 -11°C° 0 mm 4 mps 596 mmHg 31%
    01:00 -11°C° 0 mm 4 mps 596 mmHg 31%
    02:00 -11°C° 0 mm 4 mps 596 mmHg 30%
    03:00 -11°C° 0 mm 4 mps 596 mmHg 29%
    04:00 -11°C° 0 mm 4 mps 596 mmHg 29%
    05:00 -11°C° 0 mm 4 mps 596 mmHg 28%
    06:00 -11°C° 0 mm 4 mps 596 mmHg 28%
    07:00 -11°C° 0 mm 4 mps 596 mmHg 28%
    08:00 -11°C° 0 mm 4 mps 596 mmHg 28%
    09:00 -9°C° 0 mm 3 mps 597 mmHg 32%
    10:00 -7°C° 0 mm 3 mps 598 mmHg 35%
    11:00 -5°C° 0 mm 3 mps 598 mmHg 39%
    12:00 -4°C° 0 mm 3 mps 598 mmHg 38%
    13:00 -3°C° 0 mm 2 mps 598 mmHg 38%
    14:00 -3°C° 0 mm 2 mps 598 mmHg 37%
    15:00 -4°C° 0 mm 2 mps 597 mmHg 40%
    16:00 -5°C° 0 mm 2 mps 597 mmHg 42%
    17:00 -7°C° 0 mm 2 mps 596 mmHg 44%
    18:00 -8°C° 0 mm 3 mps 596 mmHg 42%
    19:00 -8°C° 0 mm 3 mps 597 mmHg 40%
    20:00 -9°C° 0 mm 4 mps 597 mmHg 38%
    21:00 -10°C° 0 mm 4 mps 597 mmHg 38%
    22:00 -10°C° 0 mm 4 mps 596 mmHg 37%
    23:00 -10°C° 0 mm 4 mps 596 mmHg 37%
    Show more